Change the Weather History Date:

Sunday, November 11, 2012

  Actual Average Record
Temperature  
Mean Temperature 52 °F -  
Max Temperature 68 °F 50 °F 71 °F (1964)
Min Temperature 36 °F 34 °F 13 °F (1957)
Degree Days  
Heating Degree Days 13    
Growing Degree Days 2 (Base 50)    
Moisture  
Dew Point 35 °F    
Average Humidity 54    
Maximum Humidity 89    
Minimum Humidity 30    
Precipitation  
Precipitation 0.00 in - - ()
Sea Level Pressure  
Sea Level Pressure 30.21 in    
Wind  
Wind Speed 4 mph (South)    
Max Wind Speed 15 mph    
Max Gust Speed 23 mph    
Visibility 10 miles    
Events      
Averages and records for this station are not official NWS values.
T = Trace of Precipitation, MM = Missing Value Source: NWS Daily Summary

Daily Weather History Graph

Daily Weather History Graph

Search for Another Location

Airport or City:

Trip Planner

Search our weather history database for the weather conditions in past years. The results will help you decide how hot, cold, wet, or windy it might be!

Date:

Astronomy

Nov. 11, 2012 Rise Set
Actual Time 7:11 AM EST 5:16 PM EST
Civil Twilight 6:42 AM EST 5:45 PM EST
Nautical Twilight 6:09 AM EST 6:17 PM EST
Astronomical Twilight 5:37 AM EST 6:49 PM EST
Moon 4:23 AM EST (11/11) 3:39 PM EST (11/11)
Length of Visible Light 11h 02m
Length of Day
10h 05m
Waning Crescent, 7% of the Moon is Illuminated
Nov 11
Waning Crescent
Nov 13
New
Nov 20
First Quarter
Nov 28
Full
Dec 6
Last Quarter

Hourly Weather History & Observations

Time (EST) Temp. Windchill Dew Point Humidity Pressure Visibility Wind Dir Wind Speed Gust Speed Precip Events Conditions
12:54 AM 44.1 °F 42.5 °F 37.0 °F 76% 30.20 in 9.0 mi WSW 3.5 mph - N/A   Clear
1:54 AM 42.1 °F - 36.0 °F 79% 30.19 in 10.0 mi Calm Calm - N/A   Clear
2:54 AM 39.9 °F - 35.1 °F 83% 30.21 in 10.0 mi Calm Calm - N/A   Clear
3:54 AM 39.0 °F - 34.0 °F 82% 30.22 in 10.0 mi Calm Calm - N/A   Clear
4:54 AM 39.0 °F - 34.0 °F 82% 30.25 in 10.0 mi Calm Calm - N/A   Clear
5:54 AM 36.0 °F - 32.0 °F 86% 30.27 in 10.0 mi Calm Calm - N/A   Clear
6:54 AM 36.0 °F - 33.1 °F 89% 30.30 in 10.0 mi Calm Calm - N/A   Clear
7:54 AM 36.0 °F - 32.0 °F 86% 30.32 in 10.0 mi Calm Calm - N/A   Clear
8:54 AM 48.9 °F - 41.0 °F 74% 30.31 in 10.0 mi Calm Calm - N/A   Clear
9:54 AM 61.0 °F - 39.0 °F 44% 30.31 in 10.0 mi South 8.1 mph - N/A   Clear
10:54 AM 63.0 °F - 37.9 °F 40% 30.30 in 10.0 mi South 13.8 mph - N/A   Clear
11:54 AM 66.9 °F - 37.9 °F 34% 30.27 in 10.0 mi SSW 15.0 mph 23.0 mph N/A   Clear
1:54 PM 68.0 °F - 35.1 °F 30% 30.22 in 10.0 mi South 9.2 mph - N/A   Clear
2:54 PM 66.9 °F - 35.1 °F 31% 30.19 in 10.0 mi South 10.4 mph - N/A   Clear
3:54 PM 66.0 °F - 37.0 °F 34% 30.18 in 10.0 mi South 5.8 mph - N/A   Clear
4:54 PM 64.9 °F - 36.0 °F 34% 30.18 in 10.0 mi South 4.6 mph - N/A   Clear
5:54 PM 61.0 °F - 36.0 °F 39% 30.17 in 10.0 mi SSE 5.8 mph - N/A   Clear
6:54 PM 61.0 °F - 34.0 °F 36% 30.17 in 10.0 mi SSE 4.6 mph - N/A   Clear
7:54 PM 60.1 °F - 34.0 °F 38% 30.16 in 10.0 mi Calm Calm - N/A   Clear
8:54 PM 61.0 °F - 33.1 °F 35% 30.15 in 10.0 mi South 3.5 mph - N/A   Clear
9:54 PM 60.1 °F - 34.0 °F 38% 30.13 in 10.0 mi South 4.6 mph - N/A   Clear
10:54 PM 61.0 °F - 33.1 °F 35% 30.12 in 10.0 mi South 6.9 mph - N/A   Clear
11:54 PM 61.0 °F - 33.1 °F 35% 30.12 in 10.0 mi South 9.2 mph - N/A   Clear